Home   Weather   Kiel   Past weeks

Flag for Germany Past Weather in Kiel, Schleswig-Holstein, Germany — Yesterday and Last 2 Weeks

Now
43 °F

Fog.


Feels Like: 36 °F
Forecast: 40 / 45 °F
Wind: 12 mph from Southwest

Location: Hohn

Current Time: Feb 20, 2017 at 5:01:33 am

Latest Report: Feb 20, 2017 at 4:20 am


Visibility: 3 mi

Pressure: 29.89 "Hg

Humidity: 93%

Dew Point: 41 °F

Location of KielLocation

Past Weather in Kiel — Graph

°F

Kiel Temperature Yesterday

Maximum temperature yesterday: 43 °F (at 7:20 am)
Minimum temperature yesterday: 39 °F (at 12:20 am)
Average temperature yesterday: 42 °F

High & Low Weather Summary for the Past Weeks

 TemperatureHumidityPressure
High46 °F (Feb 15, 2:20 pm)100% (Feb 5, 6:20 am)30.66 "Hg (Feb 5, 6:20 am)
Low19 °F (Feb 15, 7:20 am)53% (Feb 15, 2:20 pm)29.62 "Hg (Feb 5, 3:20 am)
Average34 °F82%30.30 "Hg
* Reported Feb 5 3:20 am — Feb 20 3:20 am, Kiel, Weather by CustomWeather, © 2017

Note: Actual official high and low records may vary slightly from our data, if they occured in-between our weather recording intervals... More about our weather records

Advertising

Kiel Weather History for the Previous 24 Hours

Scroll right to see more
 ConditionsComfort  
Time TempWeatherWind HumidityBarometerVisibility
3:20 am
Mon, Feb 20
43 °FFog.14 mph93%29.92 "Hg2 mi
2:44 am41 °FFog.13 mph93%29.95 "Hg2 mi
2:20 am41 °FFog.12 mph93%29.95 "Hg1 mi
2:10 am41 °FFog.13 mph93%29.95 "Hg1 mi
1:20 am41 °FFog.12 mph93%29.95 "Hg2 mi
12:40 am41 °FDrizzle. Fog.12 mph93%29.98 "Hg2 mi
12:20 am41 °FFog.10 mph93%29.98 "Hg3 mi
11:50 pm
Sun, Feb 19
41 °FFog.10 mph93%29.98 "Hg2 mi
11:20 pm41 °FDrizzle. Fog.10 mph93%29.98 "Hg1 mi
11:04 pm41 °FDrizzle. Fog.10 mph100%29.98 "Hg1 mi
10:20 pm41 °FDrizzle. Fog.10 mph100%29.98 "Hg2 mi
9:50 pm43 °FDrizzle. Fog.12 mph93%29.98 "Hg2 mi
9:20 pm43 °FDrizzle. Fog.14 mph93%29.98 "Hg2 mi
8:42 pm43 °FDrizzle. Fog.9 mph93%29.98 "Hg1 mi
8:20 pm43 °FDrizzle. Fog.9 mph93%29.98 "Hg2 mi
7:48 pm43 °FDrizzle. Fog.8 mph93%29.98 "Hg2 mi
7:20 pm43 °FDrizzle. Fog.10 mph93%29.98 "Hg2 mi
7:03 pm43 °FFog.10 mph93%29.98 "Hg3 mi
6:20 pm43 °FDrizzle. Fog.9 mph93%29.98 "Hg2 mi
5:20 pm43 °FFog.8 mph93%29.98 "Hg2 mi
4:48 pm43 °FFog.7 mph93%29.98 "Hg2 mi
4:32 pm43 °FFog.8 mph93%29.95 "Hg2 mi
3:20 pm43 °FFog.8 mph93%29.95 "Hg1 mi
2:42 pm43 °FFog.10 mph93%29.95 "Hg1 mi
2:20 pm43 °FFog.9 mph93%29.95 "Hg1 mi
1:20 pm43 °FFog.9 mph93%29.98 "Hg1 mi
1:02 pm41 °FDrizzle. Fog.10 mph100%29.98 "Hg1 mi
12:20 pm41 °FDrizzle. Fog.12 mph93%29.98 "Hg1 mi
11:42 am41 °FDrizzle. Fog.12 mph93%29.98 "Hg1 mi
11:20 am41 °FDrizzle. Fog.12 mph93%29.98 "Hg1 mi
11:04 am41 °FFog.13 mph93%29.98 "Hg1 mi
10:13 am41 °FDrizzle. Fog.14 mph93%29.98 "Hg1 mi
9:32 am41 °FLight rain. Fog.12 mph93%29.98 "Hg2 mi
8:20 am41 °FRain. Fog.13 mph87%29.98 "Hg1 mi
7:44 am41 °FLight rain. Fog.12 mph87%29.98 "Hg2 mi
7:20 am43 °FFog.12 mph81%29.98 "Hg3 mi
6:20 am41 °FFog.13 mph87%30.01 "Hg3 mi
5:20 am41 °FLight rain. Fog.10 mph87%30.04 "Hg3 mi
Weather by CustomWeather, © 2017

See weather overviewHow to use our weather pages